3DMGAME 3DM首页 新闻中心 前瞻 | 评测 游戏库 热门 | 最新 攻略中心 攻略 | 秘籍 下载中心 游戏 | 汉化 购买正版 侠客前传 | 刺客信条 论坛

注册 登录

QQ登录

只需一步,快速开始

收藏本版 (1736)

PC游戏新作发布/预览区 今日: 43 |主题: 26400|排名: 67 

作者 回复/查看 最后发表
投票 预览 【12.18.18】《太阳帝国的原罪:反叛(Sins of a Solar Empire: R)》重制版 集成DLCs PLAZA镜像版[CN/EN] attachment agree 肥宅快乐2018 2018-12-18 04:44 136933 cool123123 2019-2-8 16:28
投票 预览 【12.18.18】《街头空手道2(Street Karate 2)》RAZOR硬盘版[EN] haj870581410 2018-12-18 04:41 31645 少年已然一十八 2018-12-19 17:35
投票 预览 【12.18.18】《秘密实验室(Secret Laboratory)》RAZOR硬盘版[EN] cyber2017 2018-12-18 04:34 21427 少年已然一十八 2018-12-19 04:19
投票 预览 【12.18.18】《古董守护者3:最后的愿望(The Keeper of Antiques: The Last Will)》RAZOR硬盘版[EN] 17208659 2018-12-18 04:28 21076 少年已然一十八 2018-12-19 04:20
投票 预览 【12.18.18】《亚尔古英雄人3:赫菲斯托斯之椅(Argonauts Agency: Chair of Hephaestus)》RAZOR硬盘版[EN] agree Thag127 2018-12-18 04:25 21527 少年已然一十八 2018-12-19 04:22
投票 预览 【12.18.18】《午夜召唤4:智龙(Midnight Calling: Wise Dragon)》RAZOR硬盘版[EN] 村雨1669 2018-12-18 04:23 11426 tango222 2018-12-18 23:54
投票 预览 【12.18.18】《The Subject(The Subject)》v1.1.4 SiMPLEX硬盘版[EN] 風、吹過 2018-12-18 01:03 2981 jeffreywu5 2018-12-23 20:57
投票 预览 【12.18.18】《放置Play(THE HOUCHI PLAY -THE 放置プレイ-)》DARKZER0硬盘版[EN] 逆风n逆水 2018-12-18 01:03 42399 darkaixue 2018-12-19 20:20
投票 预览 【12.18.18】《Chaordic(Chaordic)》DARKZER0硬盘版[EN] love2011 2018-12-18 00:59 1836 tango222 2018-12-18 01:35
投票 预览 【12.17.18】《血红圣殿(Sanguine Sanctum)》DARKZER0硬盘版[EN] gwirannor 2018-12-17 23:49 21363 林泳淘 2018-12-18 14:57
投票 预览 【12.17.18】《垂直降下(Vertical Fall)》DARKZER0硬盘版[EN] love2011 2018-12-17 23:45 1935 tango222 2018-12-18 00:30
投票 预览 【12.17.18】《虫害(INSECT HAZARD)》DARKZER0硬盘版[EN] joy5580 2018-12-17 23:41 81545 CQ2B911 2019-1-11 01:05
投票 预览 【12.17.18】《Maytroid:同样是款好游戏(I swear it's a nice game too)》DARKZER0硬盘版[EN] rayveth 2018-12-17 23:39 61683 a59338263 2018-12-23 13:00
投票 预览 【12.17.18】《Bizango Blast(Bizango Blast)》DARKZER0硬盘版[EN] 134977060 2018-12-17 23:34 1747 tango222 2018-12-18 00:28
投票 预览 【12.17.18】《战斗公主玛德琳(Battle Princess Madelyn)》v1.0.3 SiMPLEX硬盘版[CN/TW/EN/JP] 6383515 2018-12-17 23:31 31404 迷失的夜/黄昏之 2018-12-22 19:38
投票 预览 【12.17.18】《德鲁:合作的艺术(DERU - The Art of Cooperation)》v1.0.12 SiMPLEX硬盘版[EN] Lien73 2018-12-17 23:27 1782 tango222 2018-12-18 00:25
投票 预览 【12.17.18】《Telekinetic(Telekinetic)》PLAZA镜像版[EN] 134977060 2018-12-17 21:20 11166 tango222 2018-12-18 00:24
投票 预览 【12.17.18】《装配需求(Assembly Required)》DARKSiDERS镜像版[EN] decay1844 2018-12-17 21:15 11206 tango222 2018-12-18 00:23
投票 预览 【12.17.18】《盾墙编年史:北境之剑(Shieldwall Chronicles: Swords of the North)》HOODLUM镜像版[EN] 早起虫儿有鸟吃 2018-12-17 14:43 53001 kay008 2019-1-2 14:11
投票 预览 【12.17.18】《格兰蒂亚秘闻(Secrets of Grindea)》v0.830b 免安装未加密版[EN] 2160566 2018-12-17 07:54 32509 山中砸屎 2019-1-23 11:59
投票 预览 【12.17.18】《究极截拳道:金太郎的复仇(Gekido Kintaro's Revenge)》DARKZER0硬盘版[CN/EN] a76743166 2018-12-17 05:27 133027 ZABORGER 2018-12-25 02:48
投票 预览 【12.17.18】《英雄传说:空之轨迹(Trails in the Sky)》v1.0.1.0 DARKSiDERS镜像版[EN] ice449005 2018-12-17 04:40 136107 雨歌凌云 2018-12-31 08:08
投票 预览 【12.17.18】《战斗公主玛德琳(Battle Princess Madelyn)》v1.0.3 DARKSiDERS镜像版[CN/TW/EN/JP] づ饕餮_ 2018-12-17 02:42 62267 wufuman 2018-12-17 18:27
投票 预览 【12.17.18】《间谍大师(Master Spy)》v1.0.6 OUTLAWS硬盘版[EN] Zay.c 2018-12-17 00:44 21768 GTA大盗贼 2018-12-17 14:25
投票 预览 【12.17.18】《Uagi-Saba(Uagi-Saba)》DARKZER0硬盘版[EN] elalib 2018-12-17 00:39 11256 tango222 2018-12-17 01:27
投票 预览 【12.17.18】《Cult of the Glitch King(Cult of the Glitch King)》DARKZER0硬盘版[EN] 孤寂只狼 2018-12-17 00:01 11408 tango222 2018-12-17 01:25
投票 预览 【12.16.18】《星球基地(Planetbase)》v1.3.2b SiMPLEX硬盘版[EN] 6110550 2018-12-16 22:34 53960 13718924323 2019-2-9 16:48
投票 预览 【12.16.18】《医院计划(Project Hospital)》v1.0.14725 SiMPLEX硬盘版[CN/EN] q569654746 2018-12-16 22:33 31968 nhjz 2019-1-10 14:37
投票 预览 【12.16.18】《游乐园建造师(Parkitect)》v1.1.2 SiMPLEX硬盘版[CN/EN] 237837282 2018-12-16 22:33 62102 佳宜妹儿 2019-1-14 23:29
投票 预览 【12.16.18】《脱逃者2(The Escapists 2)》官方中文 v1.1.9 集成DLC SiMPLEX硬盘版[CN/EN] 937691327 2018-12-16 21:37 22413 tango222 2018-12-26 17:58
投票 预览 【12.16.18】《要塞进化(FortressCraft Evolved!)》集成DLC PLAZA镜像版[EN] k32323850 2018-12-16 18:19 12620 tango222 2018-12-17 00:26
投票 预览 【12.16.18】《割草机模拟(Grass Cutter)》集成DLC SiMPLEX硬盘版[EN] d280925600 2018-12-16 18:08 21175 tango222 2018-12-18 23:22
投票 预览 【12.16.18】《鬼魂之谜9:月之水晶(Spirits of Mystery: The Moon Crystal)》RAZOR硬盘版[EN] jrmc877 2018-12-16 17:28 11185 tango222 2018-12-17 00:25
投票 预览 【12.16.18】《罪恶之路:贪婪原罪(Path of Sin: Greed)》典藏版 RAZOR硬盘版[EN] 風、吹過 2018-12-16 17:22 11463 tango222 2018-12-17 00:25
投票 预览 【12.16.18】《幽魂旅店15:心魔(Haunted Hotel XV: The Evil Inside)》RAZOR硬盘版[EN] Arimma 2018-12-16 17:17 11066 tango222 2018-12-17 00:24
投票 预览 【12.16.18】《印第安纳男孩(Indiana Boy)》Steam版 DARKZER0硬盘版[EN] Kedeadien 2018-12-16 04:17 11538 tango222 2018-12-16 13:31
投票 预览 【12.16.18】《堕落牧师(Corrupt The Priest)》DARKZER0硬盘版[CN/EN] Thag127 2018-12-16 04:15 52978 卍劍豪★鷹眼卍 2018-12-17 13:39
投票 预览 【12.16.18】《Typical(Typical)》DARKZER0硬盘版[EN] tail863 2018-12-16 04:03 21331 臭宝不听话 2018-12-16 10:12
投票 预览 【12.16.18】《巨型水族馆(Megaquarium)》v1.1.6 SiMPLEX硬盘版[CN/EN] 937691327 2018-12-16 02:12 22229 pentryjean 2018-12-20 10:57
投票 预览 【12.16.18】《数字地牢(Numgeon)》DARKZER0硬盘版[EN] 闪电cc 2018-12-16 02:09 31276 1013639803 2018-12-17 22:41
投票 预览 【12.16.18】《反重力飞行(BallisticNG)》DARKSiDERS镜像版[EN] sniff233 2018-12-16 02:05 41319 猫扑 2018-12-17 18:22
投票 预览 【12.15.18】《机械怒火(Mech Rage)》SiMPLEX硬盘版[EN] q569654746 2018-12-15 21:40 21635 猫扑 2018-12-17 18:22
投票 预览 【12.15.18】《文明时代2(Age of Civilizations II)》DARKZER0硬盘版[CN/TW/EN/JP] love2011 2018-12-15 21:14 115022 幻(初音) 2019-1-31 22:28
投票 预览 【12.15.18】《沙漠之子(Desert Child)》DARKZER0硬盘版[CN/EN/JP] Zay.c 2018-12-15 15:20 32899 6867ihate 2019-1-5 11:32
投票 预览 【12.15.18】《超越的背后(Behind The Beyond)》PLAZA镜像版[EN] Dusean63 2018-12-15 12:23 41774 fatful 2018-12-22 17:15
投票 预览 【12.15.18】《100%鲜橙汁(100 Percent Orange Juice)》集成DLCs PLAZA镜像版[CN/EN] a14110046 2018-12-15 11:26 22245 tango222 2018-12-15 21:06
投票 预览 【12.15.18】《喵堡垒(Fort Meow)》v1.1.1 OUTLAWS硬盘版[EN] b74788315 2018-12-15 04:53 22035 tango222 2018-12-15 21:05
投票 预览 【12.15.18】《机械怒火(Mech Rage)》PLAZA镜像版[EN] 風、吹過 2018-12-15 03:06 22099 luocheng 2018-12-15 15:00
投票 预览 【12.15.18】《BELOW(BELOW)》CODEX镜像版[EN] attach_img coward77 2018-12-15 01:32 162645 jeffreywu5 2018-12-20 12:06
投票 预览 【12.15.18】《Hyss(Hyss)》CODEX镜像版[CN/EN] Qendatram 2018-12-15 01:21 32073 jeffreywu5 2018-12-21 11:29
投票 预览 【12.15.18】《王国:两位君王(Kingdom Two Crowns)》SiMPLEX硬盘版[CN/TW/EN/JP] づ饕餮_ 2018-12-15 01:16 62866 lzl12061103 2018-12-20 22:16
投票 预览 【12.15.18】《恶魔之书(Book of Demons)》SiMPLEX硬盘版[CN/EN] Onaywin 2018-12-15 01:14 43356 angelhibaraai 2018-12-17 16:20
投票 预览 【12.14.18】《火星求生(Surviving Mars)》官方中文 集成15号升级档+DLCs Razor1911镜像版[CN/EN] 175597569 2018-12-14 21:49 75065 jeffreywu5 2018-12-16 22:27
投票 预览 【12.14.18】《神圣集团(Godly Corp)》DARKZER0硬盘版[EN] sniff233 2018-12-14 15:48 62565 CQ2B911 2018-12-16 11:47
投票 预览 【12.14.18】《Subterraneus(Subterraneus)》DARKZER0硬盘版[EN] a76743166 2018-12-14 11:29 21904 jeffreywu5 2018-12-16 22:29
投票 预览 【12.14.18】《心跳(HEARTBEAT)》DARKSiDERS镜像版[EN] 6440480610 2018-12-14 11:23 21949 8024 2018-12-15 23:25
投票 预览 【12.14.18】《城堡故事(Castle Story)》v1.1.10 免安装未加密版[EN] 69332801 2018-12-14 07:58 13378 tango222 2018-12-15 16:14
投票 预览 【12.14.18】《恶魔之书 (Book of Demons)》官方中文 v1.00.17840 免安装未加密版[CN/EN] cyber2017 2018-12-14 07:47 53983 gushanggs 2018-12-19 09:28
投票 预览 【12.14.18】《卢修斯3(Lucius III)》CODEX镜像版[CN/EN] agree jad620 2018-12-14 04:14 153844 jeffreywu5 2018-12-16 22:32
投票 预览 【12.14.18】《永恒之柱2:死火(Pillars of Eternity II: Deadfire)》v4.0 集成DLC CODEX镜像版[CN/EN] 无语O__O 2018-12-14 03:18 104997 chaosplasma 2018-12-30 10:46
投票 预览 【12.14.18】《猎人:荒野的呼唤(Call of the Wild)》集成Parque Fernando DLC CODEX镜像版[CN/EN] agree active2003 2018-12-14 02:43 133474 0.0-JOJO 2019-2-9 18:05
投票 预览 【12.14.18】《著名探险家:国际社会(Renowned Explorers)》集成圣杯冒险DLC PLAZA镜像版[EN] 29845754 2018-12-14 02:42 31879 fluteonline 2018-12-18 23:13
投票 预览 【12.14.18】《恶魔之书(Book of Demons)》PLAZA镜像版[CN/EN] b882597902 2018-12-14 00:30 41938 清晨露水 2018-12-14 22:21
投票 预览 【12.13.18】《GRIS(GRIS)》CODEX镜像版[CN/TW/EN] a76743166 2018-12-13 23:04 113418 obwen 2019-1-19 01:11
投票 预览 【12.13.18】《装机模拟器(PC Building Simulator)》官方中文 v0.9.3 中英文免安装未加密版[CN/EN] 6440480610 2018-12-13 08:36 63053 gushanggs 2019-1-24 14:29
投票 预览 【12.13.18】《格兰蒂亚秘闻(Secrets of Grindea)》v0.830a 免安装未加密版[EN] attachment Kedeadien 2018-12-13 08:33 42504 sd14265 2019-1-15 22:14
投票 预览 【12.13.18】《守墓人/看墓人(Graveyard Keeper)》v1.122 中英文免安装未加密版[CN/EN/JP] attachment Onaywin 2018-12-13 07:57 21987 sd14265 2018-12-30 00:29
投票 预览 【12.13.18】《血如雨下(Led It Rain)》PLAZA镜像版[EN] attachment 17208659 2018-12-13 01:21 32411 CQ2B911 2018-12-13 10:23
投票 预览 【12.12.18】《百合(Lily)》DARKZER0硬盘版[EN] attachment q195309319 2018-12-12 20:59 42715 lurain 2018-12-14 12:28
投票 预览 【12.12.18】《脱逃者2(The Escapists 2)》官方中文 v1.1.9 集成DLC 免安装未加密版[CN/EN] attachment 110594648 2018-12-12 19:20 94127 rockbmw 2018-12-15 20:40
下一页 »

快速发帖

还可输入 200 个字符
您需要登录后才可以发帖 登录 | 注册

本版积分规则

Archiver|手机版|3DMGAME ( 京ICP备14006952号 沪公网安备31011202006753号  

GMT+8, 2019-2-16 19:09 , Processed in 0.079931 second(s), 6 queries , Memcache On.

Powered by Discuz! X3.2

© 2001-2013 Comsenz Inc.

返回顶部 返回版块